Вернуться в каталог

DEB TRANSPORTER 12

АктивенSSO
NORAD 62657·DEBRIS·🇺🇸 United States
Это название спутника еще не подтверждено официальными источниками.

Запущен Jan 14, 2025 с Vandenberg Space Force Base

Loading…

Ближайшие Пролёты (ближайшие 24 часа)

TLE

СвежийSource: Space-Track

Эпоха: Sep 14, 2026, 15:44 UTC

1 62657U 25009BA  26257.65604187  .00007124  00000-0  24591-3 0  9999
2 62657  97.3894 338.8750 0001297  24.0767 336.0534 15.30267904 92605

Отслеживайте DEB TRANSPORTER 12 в реальном времени с AllMySat

Download on the App Store